Year,Month,Day,Hour,Minute,Value (Times are PST for temperature in C)
2013,10,13,00,00,5.40
2013,10,13,00,01,5.40
2013,10,13,00,02,5.40
2013,10,13,00,03,5.40
2013,10,13,00,04,5.40
2013,10,13,00,05,5.40
2013,10,13,00,06,5.40
2013,10,13,00,07,5.40
2013,10,13,00,08,5.40
2013,10,13,00,09,5.30
2013,10,13,00,10,5.30
2013,10,13,00,11,5.30
2013,10,13,00,12,5.30
2013,10,13,00,13,5.30
2013,10,13,00,14,5.30
2013,10,13,00,15,5.30
2013,10,13,00,16,5.30
2013,10,13,00,17,5.30
2013,10,13,00,18,5.30
2013,10,13,00,19,5.30
2013,10,13,00,20,5.20
2013,10,13,00,21,5.20
2013,10,13,00,22,5.20
2013,10,13,00,23,5.20
2013,10,13,00,24,5.20
2013,10,13,00,25,5.20
2013,10,13,00,26,5.20
2013,10,13,00,27,5.10
2013,10,13,00,28,5.10
2013,10,13,00,29,5.10
2013,10,13,00,30,5.10
2013,10,13,00,31,5.10
2013,10,13,00,32,5.10
2013,10,13,00,33,5.10
2013,10,13,00,34,5.10
2013,10,13,00,35,5.10
2013,10,13,00,36,5.10
2013,10,13,00,37,5.10
2013,10,13,00,38,5.10
2013,10,13,00,39,5.10
2013,10,13,00,40,5.10
2013,10,13,00,41,5.10
2013,10,13,00,42,5.10
2013,10,13,00,43,5.00
2013,10,13,00,44,5.00
2013,10,13,00,45,5.00
2013,10,13,00,46,5.00
2013,10,13,00,47,5.00
2013,10,13,00,48,5.00
2013,10,13,00,49,5.00
2013,10,13,00,50,5.00
2013,10,13,00,51,5.00
2013,10,13,00,52,4.90
2013,10,13,00,53,4.90
2013,10,13,00,54,4.90
2013,10,13,00,55,4.90
2013,10,13,00,56,4.90
2013,10,13,00,57,4.80
2013,10,13,00,58,4.80
2013,10,13,00,59,4.80
2013,10,13,01,00,4.80
2013,10,13,01,01,4.80
2013,10,13,01,02,4.80
2013,10,13,01,03,4.70
2013,10,13,01,04,4.70
2013,10,13,01,05,4.70
2013,10,13,01,06,4.70
2013,10,13,01,07,4.70
2013,10,13,01,08,4.70
2013,10,13,01,09,4.70
2013,10,13,01,10,4.70
2013,10,13,01,11,4.70
2013,10,13,01,12,4.70
2013,10,13,01,13,4.70
2013,10,13,01,14,4.60
2013,10,13,01,15,4.60
2013,10,13,01,16,4.60
2013,10,13,01,17,4.60
2013,10,13,01,18,4.60
2013,10,13,01,19,4.70
2013,10,13,01,20,4.70
2013,10,13,01,21,4.70
2013,10,13,01,22,4.70
2013,10,13,01,23,4.70
2013,10,13,01,24,4.70
2013,10,13,01,25,4.70
2013,10,13,01,26,4.60
2013,10,13,01,27,4.60
2013,10,13,01,28,4.60
2013,10,13,01,29,4.60
2013,10,13,01,30,4.60
2013,10,13,01,31,4.60
2013,10,13,01,32,4.60
2013,10,13,01,33,4.60
2013,10,13,01,34,4.60
2013,10,13,01,35,4.60
2013,10,13,01,36,4.60
2013,10,13,01,37,4.60
2013,10,13,01,38,4.60
2013,10,13,01,39,4.50
2013,10,13,01,40,4.60
2013,10,13,01,41,4.50
2013,10,13,01,42,4.50
2013,10,13,01,43,4.50
2013,10,13,01,44,4.50
2013,10,13,01,45,4.50
2013,10,13,01,46,4.50
2013,10,13,01,47,4.50
2013,10,13,01,48,4.50
2013,10,13,01,49,4.50
2013,10,13,01,50,4.50
2013,10,13,01,51,4.50
2013,10,13,01,52,4.50
2013,10,13,01,53,4.40
2013,10,13,01,54,4.40
2013,10,13,01,55,4.40
2013,10,13,01,56,4.40
2013,10,13,01,57,4.40
2013,10,13,01,58,4.40
2013,10,13,01,59,4.40
2013,10,13,02,00,4.40
2013,10,13,02,01,4.40
2013,10,13,02,02,4.30
2013,10,13,02,03,4.30
2013,10,13,02,04,4.30
2013,10,13,02,05,4.30
2013,10,13,02,06,4.30
2013,10,13,02,07,4.30
2013,10,13,02,08,4.20
2013,10,13,02,09,4.20
2013,10,13,02,10,4.20
2013,10,13,02,11,4.20
2013,10,13,02,12,4.20
2013,10,13,02,13,4.20
2013,10,13,02,14,4.20
2013,10,13,02,15,4.20
2013,10,13,02,16,4.20
2013,10,13,02,17,4.20
2013,10,13,02,18,4.20
2013,10,13,02,19,4.20
2013,10,13,02,20,4.20
2013,10,13,02,21,4.20
2013,10,13,02,22,4.20
2013,10,13,02,23,4.10
2013,10,13,02,24,4.10
2013,10,13,02,25,4.10
2013,10,13,02,26,4.10
2013,10,13,02,27,4.10
2013,10,13,02,28,4.10
2013,10,13,02,29,4.10
2013,10,13,02,30,4.10
2013,10,13,02,31,4.10
2013,10,13,02,32,4.10
2013,10,13,02,33,4.00
2013,10,13,02,34,4.00
2013,10,13,02,35,4.00
2013,10,13,02,36,4.00
2013,10,13,02,37,3.90
2013,10,13,02,38,3.90
2013,10,13,02,39,3.90
2013,10,13,02,40,3.90
2013,10,13,02,41,3.90
2013,10,13,02,42,3.90
2013,10,13,02,43,3.90
2013,10,13,02,44,3.90
2013,10,13,02,45,3.90
2013,10,13,02,46,3.90
2013,10,13,02,47,3.90
2013,10,13,02,48,3.90
2013,10,13,02,49,4.00
2013,10,13,02,50,4.00
2013,10,13,02,51,4.00
2013,10,13,02,52,4.00
2013,10,13,02,53,4.00
2013,10,13,02,54,4.00
2013,10,13,02,55,4.00
2013,10,13,02,56,4.00
2013,10,13,02,57,4.00
2013,10,13,02,58,4.00
2013,10,13,02,59,4.00
2013,10,13,03,00,4.00
2013,10,13,03,01,4.00
2013,10,13,03,02,4.00
2013,10,13,03,03,4.00
2013,10,13,03,04,4.00
2013,10,13,03,05,3.90
2013,10,13,03,06,3.90
2013,10,13,03,07,3.90
2013,10,13,03,08,3.90
2013,10,13,03,09,3.90
2013,10,13,03,10,4.00
2013,10,13,03,11,4.00
2013,10,13,03,12,4.00
2013,10,13,03,13,4.00
2013,10,13,03,14,4.00
2013,10,13,03,15,4.00
2013,10,13,03,16,4.00
2013,10,13,03,17,4.00
2013,10,13,03,18,4.00
2013,10,13,03,19,4.00
2013,10,13,03,20,3.90
2013,10,13,03,21,3.90
2013,10,13,03,22,3.90
2013,10,13,03,23,3.90
2013,10,13,03,24,3.90
2013,10,13,03,25,3.90
2013,10,13,03,26,3.90
2013,10,13,03,27,3.90
2013,10,13,03,28,3.90
2013,10,13,03,29,3.90
2013,10,13,03,30,3.90
2013,10,13,03,31,3.90
2013,10,13,03,32,3.90
2013,10,13,03,33,3.90
2013,10,13,03,34,3.90
2013,10,13,03,35,3.90
2013,10,13,03,36,3.90
2013,10,13,03,37,3.90
2013,10,13,03,38,3.90
2013,10,13,03,39,3.90
2013,10,13,03,40,3.90
2013,10,13,03,41,3.80
2013,10,13,03,42,3.80
2013,10,13,03,43,3.80
2013,10,13,03,44,3.80
2013,10,13,03,45,3.80
2013,10,13,03,46,3.80
2013,10,13,03,47,3.80
2013,10,13,03,48,3.80
2013,10,13,03,49,3.80
2013,10,13,03,50,3.80
2013,10,13,03,51,3.80
2013,10,13,03,52,3.80
2013,10,13,03,53,3.80
2013,10,13,03,54,3.80
2013,10,13,03,55,3.80
2013,10,13,03,56,3.80
2013,10,13,03,57,3.80
2013,10,13,03,58,3.80
2013,10,13,03,59,3.80
2013,10,13,04,00,3.80
2013,10,13,04,01,3.90
2013,10,13,04,02,3.90
2013,10,13,04,03,3.90
2013,10,13,04,04,3.90
2013,10,13,04,05,3.90
2013,10,13,04,06,3.90
2013,10,13,04,07,3.90
2013,10,13,04,08,3.90
2013,10,13,04,09,3.90
2013,10,13,04,10,3.90
2013,10,13,04,11,3.90
2013,10,13,04,12,3.90
2013,10,13,04,13,3.80
2013,10,13,04,14,3.80
2013,10,13,04,15,3.80
2013,10,13,04,16,3.80
2013,10,13,04,17,3.80
2013,10,13,04,18,3.80
2013,10,13,04,19,3.80
2013,10,13,04,20,3.80
2013,10,13,04,21,3.70
2013,10,13,04,22,3.70
2013,10,13,04,23,3.70
2013,10,13,04,24,3.70
2013,10,13,04,25,3.70
2013,10,13,04,26,3.70
2013,10,13,04,27,3.60
2013,10,13,04,28,3.60
2013,10,13,04,29,3.60
2013,10,13,04,30,3.60
2013,10,13,04,31,3.60
2013,10,13,04,32,3.60
2013,10,13,04,33,3.60
2013,10,13,04,34,3.70
2013,10,13,04,35,3.70
2013,10,13,04,36,3.70
2013,10,13,04,37,3.70
2013,10,13,04,38,3.70
2013,10,13,04,39,3.70
2013,10,13,04,40,3.60
2013,10,13,04,41,3.60
2013,10,13,04,42,3.60
2013,10,13,04,43,3.60
2013,10,13,04,44,3.60
2013,10,13,04,45,3.60
2013,10,13,04,46,3.60
2013,10,13,04,47,3.60
2013,10,13,04,48,3.60
2013,10,13,04,49,3.60
2013,10,13,04,50,3.50
2013,10,13,04,51,3.50
2013,10,13,04,52,3.50
2013,10,13,04,53,3.50
2013,10,13,04,54,3.50
2013,10,13,04,55,3.50
2013,10,13,04,56,3.50
2013,10,13,04,57,3.50
2013,10,13,04,58,3.50
2013,10,13,04,59,3.50
2013,10,13,05,00,3.50
2013,10,13,05,01,3.40
2013,10,13,05,02,3.40
2013,10,13,05,03,3.40
2013,10,13,05,04,3.40
2013,10,13,05,05,3.40
2013,10,13,05,06,3.30
2013,10,13,05,07,3.30
2013,10,13,05,08,3.30
2013,10,13,05,09,3.30
2013,10,13,05,10,3.30
2013,10,13,05,11,3.30
2013,10,13,05,12,3.30
2013,10,13,05,13,3.30
2013,10,13,05,14,3.30
2013,10,13,05,15,3.30
2013,10,13,05,16,3.30
2013,10,13,05,17,3.30
2013,10,13,05,18,3.20
2013,10,13,05,19,3.20
2013,10,13,05,20,3.20
2013,10,13,05,21,3.20
2013,10,13,05,22,3.20
2013,10,13,05,23,3.20
2013,10,13,05,24,3.20
2013,10,13,05,25,3.20
2013,10,13,05,26,3.20
2013,10,13,05,27,3.20
2013,10,13,05,28,3.20
2013,10,13,05,29,3.20
2013,10,13,05,30,3.20
2013,10,13,05,31,3.20
2013,10,13,05,32,3.20
2013,10,13,05,33,3.20
2013,10,13,05,34,3.20
2013,10,13,05,35,3.20
2013,10,13,05,36,3.30
2013,10,13,05,37,3.30
2013,10,13,05,38,3.30
2013,10,13,05,39,3.30
2013,10,13,05,40,3.30
2013,10,13,05,41,3.30
2013,10,13,05,42,3.30
2013,10,13,05,43,3.30
2013,10,13,05,44,3.30
2013,10,13,05,45,3.30
2013,10,13,05,46,3.30
2013,10,13,05,47,3.30
2013,10,13,05,48,3.40
2013,10,13,05,49,3.30
2013,10,13,05,50,3.40
2013,10,13,05,51,3.40
2013,10,13,05,52,3.40
2013,10,13,05,53,3.40
2013,10,13,05,54,3.40
2013,10,13,05,55,3.40
2013,10,13,05,56,3.40
2013,10,13,05,57,3.40
2013,10,13,05,58,3.40
2013,10,13,05,59,3.40
2013,10,13,06,00,3.40
2013,10,13,06,01,3.40
2013,10,13,06,02,3.40
2013,10,13,06,03,3.40
2013,10,13,06,04,3.40
2013,10,13,06,05,3.40
2013,10,13,06,06,3.40
2013,10,13,06,07,3.40
2013,10,13,06,08,3.40
2013,10,13,06,09,3.40
2013,10,13,06,10,3.40
2013,10,13,06,11,3.40
2013,10,13,06,12,3.40
2013,10,13,06,13,3.40
2013,10,13,06,14,3.40
2013,10,13,06,15,3.40
2013,10,13,06,16,3.40
2013,10,13,06,17,3.40
2013,10,13,06,18,3.40
2013,10,13,06,19,3.40
2013,10,13,06,20,3.40
2013,10,13,06,21,3.40
2013,10,13,06,22,3.40
2013,10,13,06,23,3.40
2013,10,13,06,24,3.50
2013,10,13,06,25,3.40
2013,10,13,06,26,3.50
2013,10,13,06,27,3.50
2013,10,13,06,28,3.50
2013,10,13,06,29,3.40
2013,10,13,06,30,3.40
2013,10,13,06,31,3.40
2013,10,13,06,32,3.40
2013,10,13,06,33,3.40
2013,10,13,06,34,3.40
2013,10,13,06,35,3.40
2013,10,13,06,36,3.40
2013,10,13,06,37,3.40
2013,10,13,06,38,3.30
2013,10,13,06,39,3.30
2013,10,13,06,40,3.30
2013,10,13,06,41,3.30
2013,10,13,06,42,3.30
2013,10,13,06,43,3.30
2013,10,13,06,44,3.30
2013,10,13,06,45,3.30
2013,10,13,06,46,3.30
2013,10,13,06,47,3.30
2013,10,13,06,48,3.30
2013,10,13,06,49,3.30
2013,10,13,06,50,3.30
2013,10,13,06,51,3.30
2013,10,13,06,52,3.30
2013,10,13,06,53,3.20
2013,10,13,06,54,3.20
2013,10,13,06,55,3.20
2013,10,13,06,56,3.20
2013,10,13,06,57,3.20
2013,10,13,06,58,3.20
2013,10,13,06,59,3.20
2013,10,13,07,00,3.20
2013,10,13,07,01,3.20
2013,10,13,07,02,3.10
2013,10,13,07,03,3.10
2013,10,13,07,04,3.10
2013,10,13,07,05,3.10
2013,10,13,07,06,3.10
2013,10,13,07,07,3.10
2013,10,13,07,08,3.10
2013,10,13,07,09,3.10
2013,10,13,07,10,3.10
2013,10,13,07,11,3.10
2013,10,13,07,12,3.10
2013,10,13,07,13,3.10
2013,10,13,07,14,3.10
2013,10,13,07,15,3.10
2013,10,13,07,16,3.10
2013,10,13,07,17,3.10
2013,10,13,07,18,3.10
2013,10,13,07,19,3.10
2013,10,13,07,20,3.10
2013,10,13,07,21,3.10
2013,10,13,07,22,3.10
2013,10,13,07,23,3.10
2013,10,13,07,24,3.10
2013,10,13,07,25,3.10
2013,10,13,07,26,3.20
2013,10,13,07,27,3.20
2013,10,13,07,28,3.20
2013,10,13,07,29,3.20
2013,10,13,07,30,3.20
2013,10,13,07,31,3.20
2013,10,13,07,32,3.20
2013,10,13,07,33,3.20
2013,10,13,07,34,3.20
2013,10,13,07,35,3.20
2013,10,13,07,36,3.20
2013,10,13,07,37,3.20
2013,10,13,07,38,3.20
2013,10,13,07,39,3.20
2013,10,13,07,40,3.20
2013,10,13,07,41,3.20
2013,10,13,07,42,3.20
2013,10,13,07,43,3.20
2013,10,13,07,44,3.20
2013,10,13,07,45,3.20
2013,10,13,07,46,3.20
2013,10,13,07,47,3.20
2013,10,13,07,48,3.20
2013,10,13,07,49,3.20
2013,10,13,07,50,3.20
2013,10,13,07,51,3.20
2013,10,13,07,52,3.20
2013,10,13,07,53,3.30
2013,10,13,07,54,3.30
2013,10,13,07,55,3.30
2013,10,13,07,56,3.30
2013,10,13,07,57,3.30
2013,10,13,07,58,3.40
2013,10,13,07,59,3.40
2013,10,13,08,00,3.40
2013,10,13,08,01,3.50
2013,10,13,08,02,3.50
2013,10,13,08,03,3.60
2013,10,13,08,04,3.60
2013,10,13,08,05,3.60
2013,10,13,08,06,3.60
2013,10,13,08,07,3.60
2013,10,13,08,08,3.60
2013,10,13,08,09,3.60
2013,10,13,08,10,3.60
2013,10,13,08,11,3.60
2013,10,13,08,12,3.60
2013,10,13,08,13,3.60
2013,10,13,08,14,3.60
2013,10,13,08,15,3.60
2013,10,13,08,16,3.60
2013,10,13,08,17,3.60
2013,10,13,08,18,3.60
2013,10,13,08,19,3.70
2013,10,13,08,20,3.70
2013,10,13,08,21,3.70
2013,10,13,08,22,3.80
2013,10,13,08,23,3.80
2013,10,13,08,24,3.80
2013,10,13,08,25,3.80
2013,10,13,08,26,3.90
2013,10,13,08,27,4.00
2013,10,13,08,28,4.00
2013,10,13,08,29,4.10
2013,10,13,08,30,4.20
2013,10,13,08,31,4.20
2013,10,13,08,32,4.30
2013,10,13,08,33,4.30
2013,10,13,08,34,4.30
2013,10,13,08,35,4.40
2013,10,13,08,36,4.40
2013,10,13,08,37,4.40
2013,10,13,08,38,4.30
2013,10,13,08,39,4.30
2013,10,13,08,40,4.30
2013,10,13,08,41,4.30
2013,10,13,08,42,4.40
2013,10,13,08,43,4.40
2013,10,13,08,44,4.50
2013,10,13,08,45,4.60
2013,10,13,08,46,4.60
2013,10,13,08,47,4.70
2013,10,13,08,48,4.70
2013,10,13,08,49,4.80
2013,10,13,08,50,4.90
2013,10,13,08,51,5.00
2013,10,13,08,52,5.10
2013,10,13,08,53,5.20
2013,10,13,08,54,5.20
2013,10,13,08,55,5.30
2013,10,13,08,56,5.30
2013,10,13,08,57,5.30
2013,10,13,08,58,5.40
2013,10,13,08,59,5.50
2013,10,13,09,00,5.60
2013,10,13,09,01,5.70
2013,10,13,09,02,5.80
2013,10,13,09,03,6.00
2013,10,13,09,04,6.00
2013,10,13,09,05,6.10
2013,10,13,09,06,6.20
2013,10,13,09,07,6.20
2013,10,13,09,08,6.20
2013,10,13,09,09,6.30
2013,10,13,09,10,6.30
2013,10,13,09,11,6.30
2013,10,13,09,12,6.40
2013,10,13,09,13,6.50
2013,10,13,09,14,6.60
2013,10,13,09,15,6.70
2013,10,13,09,16,6.80
2013,10,13,09,17,6.90
2013,10,13,09,18,7.00
2013,10,13,09,19,7.10
2013,10,13,09,20,7.20
2013,10,13,09,21,7.40
2013,10,13,09,22,7.50
2013,10,13,09,23,7.70
2013,10,13,09,24,7.80
2013,10,13,09,25,8.00
2013,10,13,09,26,8.20
2013,10,13,09,27,8.40
2013,10,13,09,28,8.50
2013,10,13,09,29,8.70
2013,10,13,09,30,8.80
2013,10,13,09,31,8.90
2013,10,13,09,32,8.90
2013,10,13,09,33,8.90
2013,10,13,09,34,9.00
2013,10,13,09,35,9.00
2013,10,13,09,36,9.10
2013,10,13,09,37,9.10
2013,10,13,09,38,9.10
2013,10,13,09,39,9.10
2013,10,13,09,40,9.10
2013,10,13,09,41,9.10
2013,10,13,09,42,9.00
2013,10,13,09,43,9.00
2013,10,13,09,44,9.00
2013,10,13,09,45,9.00
2013,10,13,09,46,9.00
2013,10,13,09,47,9.10
2013,10,13,09,48,9.20
2013,10,13,09,49,9.30
2013,10,13,09,50,9.40
2013,10,13,09,51,9.50
2013,10,13,09,52,9.50
2013,10,13,09,53,9.70
2013,10,13,09,54,9.80
2013,10,13,09,55,9.90
2013,10,13,09,56,10.00
2013,10,13,09,57,10.20
2013,10,13,09,58,10.30
2013,10,13,09,59,10.40
2013,10,13,10,00,10.50
2013,10,13,10,01,10.60
2013,10,13,10,02,10.70
2013,10,13,10,03,10.70
2013,10,13,10,04,10.70
2013,10,13,10,05,10.70
2013,10,13,10,06,10.80
2013,10,13,10,07,10.80
2013,10,13,10,08,10.80
2013,10,13,10,09,10.80
2013,10,13,10,10,10.80
2013,10,13,10,11,10.90
2013,10,13,10,12,10.90
2013,10,13,10,13,11.00
2013,10,13,10,14,11.00
2013,10,13,10,15,11.10
2013,10,13,10,16,11.20
2013,10,13,10,17,11.30
2013,10,13,10,18,11.40
2013,10,13,10,19,11.50
2013,10,13,10,20,11.60
2013,10,13,10,21,11.70
2013,10,13,10,22,11.80
2013,10,13,10,23,12.00
2013,10,13,10,24,12.10
2013,10,13,10,25,12.10
2013,10,13,10,26,12.10
2013,10,13,10,27,12.10
2013,10,13,10,28,12.10
2013,10,13,10,29,12.20
2013,10,13,10,30,12.20
2013,10,13,10,31,12.20
2013,10,13,10,32,12.20
2013,10,13,10,33,12.20
2013,10,13,10,34,12.20
2013,10,13,10,35,12.20
2013,10,13,10,36,12.20
2013,10,13,10,37,12.20
2013,10,13,10,38,12.20
2013,10,13,10,39,12.20
2013,10,13,10,40,12.10
2013,10,13,10,41,12.10
2013,10,13,10,42,12.20
2013,10,13,10,43,12.20
2013,10,13,10,44,12.30
2013,10,13,10,45,12.30
2013,10,13,10,46,12.50
2013,10,13,10,47,12.50
2013,10,13,10,48,12.60
2013,10,13,10,49,12.70
2013,10,13,10,50,12.70
2013,10,13,10,51,12.80
2013,10,13,10,52,12.80
2013,10,13,10,53,12.80
2013,10,13,10,54,12.80
2013,10,13,10,55,12.90
2013,10,13,10,56,12.80
2013,10,13,10,57,12.80
2013,10,13,10,58,12.80
2013,10,13,10,59,12.80
2013,10,13,11,00,12.80
2013,10,13,11,01,12.80
2013,10,13,11,02,12.70
2013,10,13,11,03,12.70
2013,10,13,11,04,12.70
2013,10,13,11,05,12.70
2013,10,13,11,06,12.80
2013,10,13,11,07,12.90
2013,10,13,11,08,12.90
2013,10,13,11,09,13.00
2013,10,13,11,10,13.00
2013,10,13,11,11,13.00
2013,10,13,11,12,13.00
2013,10,13,11,13,13.00
2013,10,13,11,14,13.00
2013,10,13,11,15,13.00
2013,10,13,11,16,12.90
2013,10,13,11,17,12.90
2013,10,13,11,18,12.80
2013,10,13,11,19,12.90
2013,10,13,11,20,12.90
2013,10,13,11,21,12.90
2013,10,13,11,22,12.80
2013,10,13,11,23,12.80
2013,10,13,11,24,12.80
2013,10,13,11,25,12.80
2013,10,13,11,26,12.80
2013,10,13,11,27,12.80
2013,10,13,11,28,12.80
2013,10,13,11,29,12.80
2013,10,13,11,30,12.90
2013,10,13,11,31,13.00
2013,10,13,11,32,13.00
2013,10,13,11,33,13.10
2013,10,13,11,34,13.10
2013,10,13,11,35,13.10
2013,10,13,11,36,13.20
2013,10,13,11,37,13.20
2013,10,13,11,38,13.30
2013,10,13,11,39,13.30
2013,10,13,11,40,13.30
2013,10,13,11,41,13.30
2013,10,13,11,42,13.30
2013,10,13,11,43,13.30
2013,10,13,11,44,13.30
2013,10,13,11,45,13.30
2013,10,13,11,46,13.30
2013,10,13,11,47,13.30
2013,10,13,11,48,13.40
2013,10,13,11,49,13.40
2013,10,13,11,50,13.50
2013,10,13,11,51,13.60
2013,10,13,11,52,13.70
2013,10,13,11,53,13.70
2013,10,13,11,54,13.60
2013,10,13,11,55,13.60
2013,10,13,11,56,13.50
2013,10,13,11,57,13.50
2013,10,13,11,58,13.40
2013,10,13,11,59,13.40
2013,10,13,12,00,13.50
2013,10,13,12,01,13.50
2013,10,13,12,02,13.50
2013,10,13,12,03,13.60
2013,10,13,12,04,13.60
2013,10,13,12,05,13.70
2013,10,13,12,06,13.70
2013,10,13,12,07,13.70
2013,10,13,12,08,13.70
2013,10,13,12,09,13.70
2013,10,13,12,10,13.70
2013,10,13,12,11,13.70
2013,10,13,12,12,13.70
2013,10,13,12,13,13.70
2013,10,13,12,14,13.60
2013,10,13,12,15,13.60
2013,10,13,12,16,13.60
2013,10,13,12,17,13.60
2013,10,13,12,18,13.60
2013,10,13,12,19,13.60
2013,10,13,12,20,13.60
2013,10,13,12,21,13.60
2013,10,13,12,22,13.60
2013,10,13,12,23,13.60
2013,10,13,12,24,13.60
2013,10,13,12,25,13.70
2013,10,13,12,26,13.80
2013,10,13,12,27,13.90
2013,10,13,12,28,13.90
2013,10,13,12,29,14.00
2013,10,13,12,30,14.00
2013,10,13,12,31,14.00
2013,10,13,12,32,14.00
2013,10,13,12,33,14.00
2013,10,13,12,34,13.90
2013,10,13,12,35,13.90
2013,10,13,12,36,13.90
2013,10,13,12,37,13.80
2013,10,13,12,38,13.80
2013,10,13,12,39,13.80
2013,10,13,12,40,13.70
2013,10,13,12,41,13.70
2013,10,13,12,42,13.70
2013,10,13,12,43,13.70
2013,10,13,12,44,13.70
2013,10,13,12,45,13.70
2013,10,13,12,46,13.80
2013,10,13,12,47,13.80
2013,10,13,12,48,13.90
2013,10,13,12,49,14.00
2013,10,13,12,50,14.00
2013,10,13,12,51,14.00
2013,10,13,12,52,14.10
2013,10,13,12,53,14.10
2013,10,13,12,54,14.20
2013,10,13,12,55,14.30
2013,10,13,12,56,14.30
2013,10,13,12,57,14.30
2013,10,13,12,58,14.30
2013,10,13,12,59,14.30
2013,10,13,13,00,14.30
2013,10,13,13,01,14.30
2013,10,13,13,02,14.30
2013,10,13,13,03,14.30
2013,10,13,13,04,14.30
2013,10,13,13,05,14.30
2013,10,13,13,06,14.30
2013,10,13,13,07,14.30
2013,10,13,13,08,14.40
2013,10,13,13,09,14.40
2013,10,13,13,10,14.40
2013,10,13,13,11,14.50
2013,10,13,13,12,14.60
2013,10,13,13,13,14.60
2013,10,13,13,14,14.70
2013,10,13,13,15,14.80
2013,10,13,13,16,14.80
2013,10,13,13,17,14.80
2013,10,13,13,18,14.80
2013,10,13,13,19,14.80
2013,10,13,13,20,14.80
2013,10,13,13,21,14.70
2013,10,13,13,22,14.70
2013,10,13,13,23,14.70
2013,10,13,13,24,14.70
2013,10,13,13,25,14.80
2013,10,13,13,26,14.80
2013,10,13,13,27,14.90
2013,10,13,13,28,14.90
2013,10,13,13,29,14.90
2013,10,13,13,30,14.90
2013,10,13,13,31,14.90
2013,10,13,13,32,14.90
2013,10,13,13,33,14.90
2013,10,13,13,34,15.00
2013,10,13,13,35,15.00
2013,10,13,13,36,15.10
2013,10,13,13,37,15.10
2013,10,13,13,38,15.10
2013,10,13,13,39,15.10
2013,10,13,13,40,15.20
2013,10,13,13,41,15.30
2013,10,13,13,42,15.30
2013,10,13,13,43,15.30
2013,10,13,13,44,15.30
2013,10,13,13,45,15.40
2013,10,13,13,46,15.40
2013,10,13,13,47,15.50
2013,10,13,13,48,15.60
2013,10,13,13,49,15.70
2013,10,13,13,50,15.70
2013,10,13,13,51,15.70
2013,10,13,13,52,15.70
2013,10,13,13,53,15.60
2013,10,13,13,54,15.50
2013,10,13,13,55,15.50
2013,10,13,13,56,15.40
2013,10,13,13,57,15.30
2013,10,13,13,58,15.30
2013,10,13,13,59,15.30
2013,10,13,14,00,15.30
2013,10,13,14,01,15.40
2013,10,13,14,02,15.40
2013,10,13,14,03,15.40
2013,10,13,14,04,15.50
2013,10,13,14,05,15.50
2013,10,13,14,06,15.50
2013,10,13,14,07,15.60
2013,10,13,14,08,15.60
2013,10,13,14,09,15.60
2013,10,13,14,10,15.60
2013,10,13,14,11,15.60
2013,10,13,14,12,15.50
2013,10,13,14,13,15.50
2013,10,13,14,14,15.50
2013,10,13,14,15,15.50
2013,10,13,14,16,15.50
2013,10,13,14,17,15.60
2013,10,13,14,18,15.70
2013,10,13,14,19,15.80
2013,10,13,14,20,15.80
2013,10,13,14,21,15.90
2013,10,13,14,22,16.00
2013,10,13,14,23,16.00
2013,10,13,14,24,16.10
2013,10,13,14,25,16.10
2013,10,13,14,26,16.10
2013,10,13,14,27,16.10
2013,10,13,14,28,16.20
2013,10,13,14,29,16.30
2013,10,13,14,30,16.30
2013,10,13,14,31,16.40
2013,10,13,14,32,16.50
2013,10,13,14,33,16.50
2013,10,13,14,34,16.50
2013,10,13,14,35,16.50
2013,10,13,14,36,16.50
2013,10,13,14,37,16.50
2013,10,13,14,38,16.60
2013,10,13,14,39,16.60
2013,10,13,14,40,16.60
2013,10,13,14,41,16.60
2013,10,13,14,42,16.60
2013,10,13,14,43,16.50
2013,10,13,14,44,16.50
2013,10,13,14,45,16.40
2013,10,13,14,46,16.30
2013,10,13,14,47,16.30
2013,10,13,14,48,16.30
2013,10,13,14,49,16.20
2013,10,13,14,50,16.20
2013,10,13,14,51,16.10
2013,10,13,14,52,16.10
2013,10,13,14,53,16.00
2013,10,13,14,54,16.00
2013,10,13,14,55,16.00
2013,10,13,14,56,16.10
2013,10,13,14,57,16.10
2013,10,13,14,58,16.10
2013,10,13,14,59,16.10
2013,10,13,15,00,16.20
2013,10,13,15,01,16.20
2013,10,13,15,02,16.10
2013,10,13,15,03,16.10
2013,10,13,15,04,16.20
2013,10,13,15,05,16.20
2013,10,13,15,06,16.20
2013,10,13,15,07,16.20
2013,10,13,15,08,16.20
2013,10,13,15,09,16.30
2013,10,13,15,10,16.30
2013,10,13,15,11,16.40
2013,10,13,15,12,16.50
2013,10,13,15,13,16.60
2013,10,13,15,14,16.70
2013,10,13,15,15,16.70
2013,10,13,15,16,16.60
2013,10,13,15,17,16.60
2013,10,13,15,18,16.60
2013,10,13,15,19,16.50
2013,10,13,15,20,16.50
2013,10,13,15,21,16.40
2013,10,13,15,22,16.40
2013,10,13,15,23,16.40
2013,10,13,15,24,16.40
2013,10,13,15,25,16.50
2013,10,13,15,26,16.50
2013,10,13,15,27,16.60
2013,10,13,15,28,16.60
2013,10,13,15,29,16.60
2013,10,13,15,30,16.60
2013,10,13,15,31,16.60
2013,10,13,15,32,16.60
2013,10,13,15,33,16.50
2013,10,13,15,34,16.50
2013,10,13,15,35,16.40
2013,10,13,15,36,16.40
2013,10,13,15,37,16.40
2013,10,13,15,38,16.40
2013,10,13,15,39,16.40
2013,10,13,15,40,16.40
2013,10,13,15,41,16.30
2013,10,13,15,42,16.30
2013,10,13,15,43,16.30
2013,10,13,15,44,16.20
2013,10,13,15,45,16.20
2013,10,13,15,46,16.10
2013,10,13,15,47,16.00
2013,10,13,15,48,15.90
2013,10,13,15,49,15.80
2013,10,13,15,50,15.70
2013,10,13,15,51,15.50
2013,10,13,15,52,15.40
2013,10,13,15,53,15.40
2013,10,13,15,54,15.30
2013,10,13,15,55,15.30
2013,10,13,15,56,15.30
2013,10,13,15,57,15.20
2013,10,13,15,58,15.20
2013,10,13,15,59,15.30
2013,10,13,16,00,15.30
2013,10,13,16,01,15.40
2013,10,13,16,02,15.40
2013,10,13,16,03,15.50
2013,10,13,16,04,15.50
2013,10,13,16,05,15.60
2013,10,13,16,06,15.60
2013,10,13,16,07,15.70
2013,10,13,16,08,15.70
2013,10,13,16,09,15.70
2013,10,13,16,10,15.70
2013,10,13,16,11,15.60
2013,10,13,16,12,15.60
2013,10,13,16,13,15.50
2013,10,13,16,14,15.40
2013,10,13,16,15,15.40
2013,10,13,16,16,15.30
2013,10,13,16,17,15.10
2013,10,13,16,18,15.00
2013,10,13,16,19,14.90
2013,10,13,16,20,14.80
2013,10,13,16,21,14.70
2013,10,13,16,22,14.50
2013,10,13,16,23,14.50
2013,10,13,16,24,14.40
2013,10,13,16,25,14.30
2013,10,13,16,26,14.20
2013,10,13,16,27,14.10
2013,10,13,16,28,13.90
2013,10,13,16,29,13.80
2013,10,13,16,30,13.80
2013,10,13,16,31,13.70
2013,10,13,16,32,13.70
2013,10,13,16,33,13.60
2013,10,13,16,34,13.60
2013,10,13,16,35,13.60
2013,10,13,16,36,13.60
2013,10,13,16,37,13.60
2013,10,13,16,38,13.60
2013,10,13,16,39,13.60
2013,10,13,16,40,13.60
2013,10,13,16,41,13.60
2013,10,13,16,42,13.70
2013,10,13,16,43,13.70
2013,10,13,16,44,13.70
2013,10,13,16,45,13.70
2013,10,13,16,46,13.60
2013,10,13,16,47,13.60
2013,10,13,16,48,13.60
2013,10,13,16,49,13.60
2013,10,13,16,50,13.60
2013,10,13,16,51,13.50
2013,10,13,16,52,13.50
2013,10,13,16,53,13.50
2013,10,13,16,54,13.50
2013,10,13,16,55,13.40
2013,10,13,16,56,13.40
2013,10,13,16,57,13.40
2013,10,13,16,58,13.30
2013,10,13,16,59,13.30
2013,10,13,17,00,13.30
2013,10,13,17,01,13.30
2013,10,13,17,02,13.30
2013,10,13,17,03,13.20
2013,10,13,17,04,13.30
2013,10,13,17,05,13.30
2013,10,13,17,06,13.20
2013,10,13,17,07,13.20
2013,10,13,17,08,13.20
2013,10,13,17,09,13.10
2013,10,13,17,10,13.10
2013,10,13,17,11,13.00
2013,10,13,17,12,13.00
2013,10,13,17,13,13.00
2013,10,13,17,14,13.00
2013,10,13,17,15,13.10
2013,10,13,17,16,13.10
2013,10,13,17,17,13.00
2013,10,13,17,18,13.00
2013,10,13,17,19,13.00
2013,10,13,17,20,13.00
2013,10,13,17,21,12.90
2013,10,13,17,22,12.80
2013,10,13,17,23,12.80
2013,10,13,17,24,12.70
2013,10,13,17,25,12.70
2013,10,13,17,26,12.70
2013,10,13,17,27,12.70
2013,10,13,17,28,12.60
2013,10,13,17,29,12.60
2013,10,13,17,30,12.60
2013,10,13,17,31,12.60
2013,10,13,17,32,12.60
2013,10,13,17,33,12.60
2013,10,13,17,34,12.60
2013,10,13,17,35,12.60
2013,10,13,17,36,12.50
2013,10,13,17,37,12.50
2013,10,13,17,38,12.50
2013,10,13,17,39,12.50
2013,10,13,17,40,12.40
2013,10,13,17,41,12.40
2013,10,13,17,42,12.40
2013,10,13,17,43,12.30
2013,10,13,17,44,12.30
2013,10,13,17,45,12.30